Weather History for Wolf Point, MT

Change the Weather History Date:

Thursday, December 6, 2012

  Actual Average Record
Temperature  
Mean Temperature -3 °C -  
Max Temperature 3 °C -1 °C 8 °C (1999)
Min Temperature -9 °C -14 °C -31 °C (2013)
Degree Days  
Heating Degree Days 38    
Cooling Degree Days 0    
Moisture  
Dew Point -7 °C    
Average Humidity 75    
Maximum Humidity 88    
Minimum Humidity 50    
Precipitation  
Precipitation 0.00 mm 0.25 mm 0.15 mm (2003)
Month to date precipitation T 0.06  
Year to date precipitation 10.15 11.94  
Sea Level Pressure  
Sea Level Pressure 1016 hPa    
Wind  
Wind Speed 13 km/h (West)    
Max Wind Speed 21 km/h    
Max Gust Speed 32 km/h    
Visibility 16 kilometers    
Events      
T = Trace of Precipitation, MM = Missing Value Source: NWS Daily Summary

Daily Weather History Graph

Daily Weather History Graph

Search for Another Location

Airport:

Trip Planner

Search our weather history database for the weather conditions in past years. The results will help you decide how hot, cold, wet, or windy it might be!

Date:

Astronomy

Dec. 06, 2012 Rise Set
Actual Time 7:37 AM MST 4:09 PM MST
Civil Twilight 7:01 AM MST 4:45 PM MST
Nautical Twilight 6:22 AM MST 5:24 PM MST
Astronomical Twilight 5:44 AM MST 6:02 PM MST
Moon No Moon Rise 12:04 PM MST (12/6)
Length of Visible Light 9h 43m
Length of Day
8h 31m
Waning Gibbous, 48% of the Moon is Illuminated
Dec 6
Waning Gibbous
Dec 13
New
Dec 19
First Quarter
Dec 28
Full
Jan 4
Last Quarter

Hourly Weather History & Observations

Time (MST) Temp. Windchill Dew Point Humidity Pressure Visibility Wind Dir Wind Speed Gust Speed Precip Events Conditions
12:53 AM 0.0 °C -5.3 °C -5.0 °C 69% 1014.9 hPa 16.1 km WNW 20.4 km/h / 5.7 m/s 31.5 km/h / 8.7 m/s N/A   Clear
1:53 AM 0.0 °C -5.3 °C -5.0 °C 69% 1015.6 hPa 16.1 km NW 20.4 km/h / 5.7 m/s - N/A   Clear
2:53 AM -1.1 °C -5.7 °C -5.6 °C 72% 1016.3 hPa 16.1 km West 14.8 km/h / 4.1 m/s - N/A   Clear
3:53 AM -3.3 °C -7.0 °C -6.1 °C 81% 1016.7 hPa 16.1 km WSW 9.3 km/h / 2.6 m/s - N/A   Clear
4:53 AM -3.3 °C -7.0 °C -6.7 °C 78% 1017.2 hPa 16.1 km West 9.3 km/h / 2.6 m/s - N/A   Clear
5:53 AM -4.4 °C -9.3 °C -6.7 °C 84% 1017.5 hPa 16.1 km WSW 13.0 km/h / 3.6 m/s - N/A   Clear
6:53 AM -4.4 °C -8.9 °C -6.7 °C 84% 1017.5 hPa 16.1 km WSW 11.1 km/h / 3.1 m/s - N/A   Clear
7:53 AM -5.0 °C -10.5 °C -7.2 °C 85% 1018.0 hPa 16.1 km West 14.8 km/h / 4.1 m/s - N/A   Clear
8:53 AM -3.3 °C -8.0 °C -6.1 °C 81% 1018.1 hPa 16.1 km WSW 13.0 km/h / 3.6 m/s - N/A   Clear
9:53 AM -1.7 °C -6.1 °C -5.6 °C 75% 1018.1 hPa 16.1 km WSW 13.0 km/h / 3.6 m/s - N/A   Clear
10:53 AM -0.6 °C -3.2 °C -5.0 °C 72% 1017.9 hPa 16.1 km SW 7.4 km/h / 2.1 m/s - N/A   Clear
11:53 AM 1.7 °C -1.5 °C -5.0 °C 61% 1016.5 hPa 16.1 km West 11.1 km/h / 3.1 m/s - N/A   Clear
12:53 PM 2.8 °C -1.2 °C -6.7 °C 50% 1015.8 hPa 16.1 km West 16.7 km/h / 4.6 m/s - N/A   Clear
1:53 PM 2.2 °C -0.9 °C -6.1 °C 55% 1015.6 hPa 16.1 km West 11.1 km/h / 3.1 m/s - N/A   Clear
2:53 PM 2.2 °C -0.9 °C -6.1 °C 55% 1015.1 hPa 16.1 km West 11.1 km/h / 3.1 m/s - N/A   Clear
3:53 PM 1.1 °C - -6.7 °C 56% 1015.5 hPa 16.1 km Calm Calm - N/A   Clear
4:53 PM -1.7 °C - -6.7 °C 69% 1015.8 hPa 16.1 km Calm Calm - N/A   Clear
5:53 PM -5.0 °C - -7.8 °C 81% 1016.0 hPa 16.1 km Calm Calm - N/A   Clear
6:53 PM -6.0 °C - -8.0 °C 86% 1012.8 hPa 16.1 km Calm Calm - N/A   Scattered Clouds
7:53 PM -7.2 °C - -8.9 °C 88% 1016.2 hPa 16.1 km Calm Calm - N/A   Clear
8:53 PM -7.8 °C -10.7 °C -10.0 °C 84% 1016.1 hPa 16.1 km East 5.6 km/h / 1.5 m/s - N/A   Mostly Cloudy
9:53 PM -8.3 °C - -10.6 °C 84% 1016.1 hPa 16.1 km Calm Calm - N/A   Clear
10:53 PM -8.3 °C - -10.6 °C 84% 1016.2 hPa 16.1 km Calm Calm - N/A   Clear
11:53 PM -8.9 °C -14.3 °C -10.6 °C 88% 1015.9 hPa 16.1 km East 11.1 km/h / 3.1 m/s - N/A   Clear